Simultaneous Nadir Overpasses (SNOs) Predictions

Prediction of SNOs between AQUA and METOP-A Satellite Orbit:

Table of predicted SNOs for the next 14.0 days since TLE Epoch: 3/14/2015
Index Date (AQUA) Time (AQUA) Lat,Lon (AQUA) SZA (AQUA ) Date (METOP-A) Time (METOP-A) Lat,Lon (METOP-A) SZA (METOP-A ) Distance(km) Time Diff (sec)
1 03/16/2015 13:09:27 73.82, -22.99 75.63 03/16/2015 13:09:01 73.84, -23.02 75.65 1.70 26
2 03/16/2015 13:58:54 -73.91, 144.47 104.31 03/16/2015 13:59:42 -73.89, 144.43 104.33 2.47 48
3 03/19/2015 07:54:03 -73.32,-123.10 106.02 03/19/2015 07:52:55 -73.26,-125.26 105.98 69.42 68
4 03/19/2015 08:43:41 73.87, 43.37 74.55 03/19/2015 08:43:23 73.84, 43.39 74.52 3.61 18
5 03/19/2015 09:33:07 -73.89,-149.05 105.44 03/19/2015 09:34:04 -73.89,-149.16 105.45 3.44 57
6 03/22/2015 03:28:21 -73.67, -57.37 106.78 03/22/2015 03:27:09 -73.61, -58.07 106.79 22.93 72
7 03/22/2015 04:17:52 73.85, 109.86 73.41 03/22/2015 04:17:43 73.88, 109.89 73.44 3.05 9
8 03/22/2015 05:07:19 -73.92, -82.66 106.52 03/22/2015 05:08:24 -73.94, -82.64 106.52 1.29 65
9 03/24/2015 23:02:35 -73.79, 8.82 107.76 03/24/2015 23:01:27 -73.80, 8.77 107.74 1.52 68
10 03/24/2015 23:52:04 73.88, 176.26 72.33 03/24/2015 23:52:05 73.86, 176.26 72.31 1.71 1
11 03/25/2015 00:41:32 -74.00, -16.37 107.56 03/25/2015 00:42:45 -73.97, -16.14 107.61 7.47 73
12 03/27/2015 18:36:46 -73.80, 75.25 108.86 03/27/2015 18:35:48 -73.83, 75.25 108.82 2.73 58
13 03/27/2015 19:26:15 73.90,-117.31 71.23 03/27/2015 19:26:26 73.89,-117.27 71.23 1.64 11




NCC Satellite Simultaneous Nadir Overpasses (SNOs) Prediction Service
